Location: Mahannah Oil Field
(37.4664°N, 96.6003°W)
Time: 09:26:29
(UTC+00:00)

Courier 1B - Pass Details

Date: 24 January 2021
Orbit: 962 x 1209 km, 28.3° (Epoch: 02 March)

Event Time Altitude Azimuth Distance (km) Brightness Sun altitude
Rises 09:49:37 0° 262° (W) 3,638 - -44.7°
Reaches altitude 10° 09:52:40 10° 251° (WSW) 2,686 - -44.1°
Maximum altitude 09:57:54 26° 196° (SSW) 1,785 - -43.1°
Exits shadow 10:02:57 11° 143° (SE) 2,653 10.0 -42.1°
Drops below altitude 10° 10:03:12 10° 142° (SE) 2,726 10.1 -42.0°
Sets 10:06:20 0° 130° (SE) 3,703 11.0 -41.4°
